軌道要素
Epoch 2013 July 7.0 TT = JDT 2456480.5
T 2013 July 5.81269 TT MPCW
q 4.2493463 (2000.0) P Q
n 0.05342791 Peri. 35.13529 +0.71124323 -0.70266506
a 6.9816372 Node 9.58435 +0.61453202 +0.60781185
e 0.3913539 Incl. 6.85457 +0.34129674 +0.36990075
P 18.4
From 93 observations 1960 Sept. 24-2015 Jan. 20, mean residual 1".0.
|